FW6307 Weather Reports


time (UTC)temp
F
wind
direction
speed
knots
gust
knots
rain 1hr
in
rain 24hr
in
rain mn
in
humidity
%
barometer
mb
20260504050731 48 182 0.0 0.9 0.00 0.00 0.00 68 1013.0
20260504050234 47 343 0.0 0.9 0.00 0.00 0.00 69 1013.0
20260504045732 47 35 0.9 1.7 0.00 0.00 0.00 69 1013.0
20260504045232 47 130 0.0 0.9 0.00 0.00 0.00 69 1013.0
20260504044731 47 147 1.7 1.7 0.00 0.00 0.00 69 1014.0
20260504044231 47 345 0.9 1.7 0.00 0.00 0.00 70 1014.0
20260504043732 47 310 0.0 1.7 0.00 0.00 0.00 69 1014.0
20260504043233 47 242 1.7 3.5 0.00 0.00 0.00 69 1014.0
20260504042731 46 141 0.0 1.7 0.00 0.00 0.00 70 1014.0
20260504042232 47 328 0.9 2.6 0.00 0.00 0.00 70 1014.0
20260504041731 47 163 0.9 1.7 0.00 0.00 0.00 70 1014.0
20260504041232 47 35 0.9 1.7 0.00 0.00 0.00 70 1014.0
20260504040731 47 15 1.7 2.6 0.00 0.00 0.00 70 1014.0
20260504040239 47 357 1.7 2.6 0.00 0.00 0.00 70 1014.0
20260504035732 47 346 1.7 1.7 0.00 0.00 0.00 70 1014.0
20260504035232 47 18 0.0 0.0 0.00 0.00 0.00 70 1014.0
20260504034732 47 0 0.0 0.0 0.00 0.00 0.00 69 1014.0
20260504034231 48 9 0.0 0.0 0.00 0.00 0.00 69 1014.0
20260504033731 48 314 0.0 0.0 0.00 0.00 0.00 69 1014.0
20260504033231 48 348 0.0 1.7 0.00 0.00 0.00 68 1014.0
20260504032733 49 309 0.0 0.9 0.00 0.00 0.00 68 1014.0
20260504032231 49 299 0.0 0.0 0.00 0.00 0.00 67 1013.0
20260504031731 50 0 0.0 0.0 0.00 0.00 0.00 65 1013.0
20260504031232 50 126 0.0 0.9 0.00 0.00 0.00 64 1014.0
20260504030731 51 324 0.0 0.0 0.00 0.00 0.00 64 1014.0
20260504030231 51 275 1.7 1.7 0.00 0.00 0.00 62 1014.0
20260504025731 51 27 0.9 1.7 0.00 0.00 0.00 59 1014.0
20260504025233 52 325 1.7 1.7 0.00 0.00 0.00 57 1014.0
20260504024731 52 228 0.0 1.7 0.00 0.00 0.00 53 1014.0
20260504024232 52 173 0.0 1.7 0.00 0.00 0.00 54 1014.0
20260504023732 52 246 0.0 0.9 0.00 0.00 0.00 56 1014.0
20260504023231 53 164 0.9 1.7 0.00 0.00 0.00 52 1014.0
20260504022732 53 230 0.0 0.0 0.00 0.00 0.00 53 1014.0
20260504022234 53 298 0.0 0.9 0.00 0.00 0.00 52 1014.0
20260504021732 53 0 0.0 0.0 0.00 0.00 0.00 51 1014.0
20260504021232 54 215 1.7 2.6 0.00 0.00 0.00 51 1014.0
20260504020731 54 199 1.7 3.5 0.00 0.00 0.00 51 1014.0
20260504020232 54 183 1.7 2.6 0.00 0.00 0.00 50 1014.0
20260504015731 54 0 0.0 0.0 0.00 0.00 0.00 49 1014.0
20260504015231 54 199 1.7 2.6 0.00 0.00 0.00 48 1014.0
20260504014732 54 204 0.0 0.9 0.00 0.00 0.00 48 1014.0
20260504014231 55 221 1.7 2.6 0.00 0.00 0.00 48 1014.0
20260504013732 55 232 0.0 0.9 0.00 0.00 0.00 48 1014.0
20260504013232 55 320 1.7 2.6 0.00 0.00 0.00 47 1014.0
20260504012732 56 303 0.9 1.7 0.00 0.00 0.00 47 1014.0
20260504012232 56 313 2.6 3.5 0.00 0.00 0.00 45 1013.0
20260504011732 56 298 1.7 2.6 0.00 0.00 0.00 45 1013.0
20260504011232 56 279 1.7 2.6 0.00 0.00 0.00 43 1013.0
20260504010731 56 273 0.9 3.5 0.00 0.00 0.00 43 1013.0
20260504010232 56 261 3.5 6.1 0.00 0.00 0.00 42 1013.0
20260504005731 57 245 0.9 2.6 0.00 0.00 0.00 42 1013.0
20260504005232 57 233 1.7 3.5 0.00 0.00 0.00 42 1013.0
20260504004731 57 263 0.0 1.7 0.00 0.00 0.00 42 1013.0
20260504004231 57 245 1.7 4.3 0.00 0.00 0.00 41 1013.0
20260504003731 57 228 0.9 1.7 0.00 0.00 0.00 41 1013.0
20260504003231 57 240 1.7 3.5 0.00 0.00 0.00 40 1013.0
20260504002731 58 244 3.5 6.1 0.00 0.00 0.00 39 1013.0
20260504002231 58 268 4.3 6.1 0.00 0.00 0.00 39 1013.0
20260504001732 58 251 2.6 3.5 0.00 0.00 0.00 39 1013.0
20260504001231 58 255 4.3 7.8 0.00 0.00 0.00 38 1013.0
20260504000732 58 280 5.2 7.8 0.00 0.00 0.00 38 1013.0
20260504000233 58 280 5.2 7.8 0.00 0.00 0.00 38 1013.0
20260503235731 58 254 5.2 7.0 0.00 0.00 0.00 37 1013.0
20260503235232 58 284 7.0 11.3 0.00 0.00 0.00 37 1013.0
20260503234731 59 283 7.0 12.2 0.00 0.00 0.00 37 1013.0
20260503234231 59 268 5.2 7.8 0.00 0.00 0.00 37 1013.0
20260503233732 59 259 7.8 11.3 0.00 0.00 0.00 36 1013.0
20260503233232 59 275 6.1 9.6 0.00 0.00 0.00 36 1013.0
20260503232731 59 239 4.3 7.0 0.00 0.00 0.00 36 1013.0
20260503232231 59 256 5.2 9.6 0.00 0.00 0.00 36 1013.0
20260503231731 59 267 8.7 11.3 0.00 0.00 0.00 36 1013.0
20260503231231 59 258 7.0 11.3 0.00 0.00 0.00 36 1013.0
20260503230732 59 260 4.3 7.8 0.00 0.00 0.00 36 1013.0
20260503225744 59 250 7.0 8.7 0.00 0.00 0.00 36 1013.0
20260503225231 59 260 6.1 9.6 0.00 0.00 0.00 36 1013.0
20260503224731 60 271 7.0 12.2 0.00 0.00 0.00 35 1013.0
20260503224235 60 259 6.1 10.4 0.00 0.00 0.00 35 1013.0
20260503223731 60 250 6.1 12.2 0.00 0.00 0.00 35 1013.0
20260503223231 60 262 7.8 9.6 0.00 0.00 0.00 35 1013.0
20260503222731 60 257 6.1 10.4 0.00 0.00 0.00 35 1013.0
20260503222231 59 263 6.1 8.7 0.00 0.00 0.00 35 1013.0
20260503221731 59 255 7.8 11.3 0.00 0.00 0.00 35 1013.0
20260503221231 59 266 7.8 13.0 0.00 0.00 0.00 35 1013.0
20260503220732 59 280 9.6 16.5 0.00 0.00 0.00 35 1013.0
20260503220232 59 244 7.8 11.3 0.00 0.00 0.00 35 1013.0
20260503215731 59 275 4.3 7.8 0.00 0.00 0.00 36 1013.0
20260503215231 59 264 6.1 7.8 0.00 0.00 0.00 36 1013.0
20260503214733 59 242 7.8 11.3 0.00 0.00 0.00 36 1013.0
20260503214232 59 254 8.7 13.9 0.00 0.00 0.00 36 1013.0
20260503213731 59 265 7.8 10.4 0.00 0.00 0.00 36 1013.0
20260503213232 59 237 7.8 11.3 0.00 0.00 0.00 36 1013.0
20260503212731 59 284 8.7 12.2 0.00 0.00 0.00 36 1013.0
20260503212231 59 274 7.8 11.3 0.00 0.00 0.00 36 1013.0
20260503211731 59 278 6.1 10.4 0.00 0.00 0.00 35 1013.0
20260503211231 59 271 6.1 10.4 0.00 0.00 0.00 36 1013.0
20260503210731 59 277 9.6 15.6 0.00 0.00 0.00 35 1013.0
20260503210233 59 268 11.3 15.6 0.00 0.00 0.00 35 1013.0
20260503205733 59 263 5.2 9.6 0.00 0.00 0.00 36 1013.0
20260503205231 59 252 7.0 9.6 0.00 0.00 0.00 35 1013.0
20260503204732 59 284 4.3 8.7 0.00 0.00 0.00 36 1013.0
20260503204231 59 261 7.0 9.6 0.00 0.00 0.00 36 1014.0
20260503203731 59 258 3.5 7.8 0.00 0.00 0.00 37 1014.0
20260503203231 59 292 6.1 7.8 0.00 0.00 0.00 36 1014.0
20260503202732 59 284 3.5 7.0 0.00 0.00 0.00 36 1014.0
20260503202231 58 265 6.1 10.4 0.00 0.00 0.00 36 1014.0
20260503201731 58 265 9.6 14.8 0.00 0.00 0.00 35 1014.0
20260503201231 58 247 5.2 8.7 0.00 0.00 0.00 37 1014.0
20260503200731 59 272 7.8 10.4 0.00 0.00 0.00 37 1014.0
20260503200231 59 267 8.7 11.3 0.00 0.00 0.00 36 1014.0
20260503195731 58 264 5.2 8.7 0.00 0.00 0.00 37 1014.0
20260503195231 58 268 7.0 11.3 0.00 0.00 0.00 37 1014.0
20260503194731 58 273 7.0 10.4 0.00 0.00 0.00 37 1014.0
20260503194232 58 260 4.3 7.0 0.00 0.00 0.00 37 1014.0
20260503193731 57 285 6.1 9.6 0.00 0.00 0.00 38 1014.0
20260503193231 58 289 6.1 10.4 0.00 0.00 0.00 37 1014.0
20260503192731 58 285 9.6 13.0 0.00 0.00 0.00 36 1014.0
20260503192231 57 257 6.1 10.4 0.00 0.00 0.00 37 1015.0
20260503191732 58 267 5.2 8.7 0.00 0.00 0.00 37 1015.0
20260503191232 57 324 5.2 9.6 0.00 0.00 0.00 36 1015.0
20260503190731 58 296 6.1 8.7 0.00 0.00 0.00 38 1015.0
20260503190231 58 277 7.0 11.3 0.00 0.00 0.00 37 1015.0
20260503185731 58 315 2.6 5.2 0.00 0.00 0.00 37 1015.0
20260503185231 57 265 6.1 7.8 0.00 0.00 0.00 36 1015.0
20260503184732 57 287 6.1 9.6 0.00 0.00 0.00 37 1015.0
20260503184231 56 251 7.8 16.5 0.00 0.00 0.00 38 1015.0
20260503183732 57 248 5.2 7.8 0.00 0.00 0.00 39 1015.0
20260503183232 56 329 7.8 13.0 0.00 0.00 0.00 37 1015.0
20260503182731 56 321 6.1 8.7 0.00 0.00 0.00 38 1015.0
20260503182231 56 302 7.8 10.4 0.00 0.00 0.00 38 1015.0
20260503181732 56 284 7.8 10.4 0.00 0.00 0.00 39 1015.0
20260503181234 56 326 4.3 7.0 0.00 0.00 0.00 38 1015.0
20260503180731 56 333 6.1 10.4 0.00 0.00 0.00 38 1015.0
20260503180231 55 294 7.0 11.3 0.00 0.00 0.00 40 1015.0
20260503175731 55 277 8.7 12.2 0.00 0.00 0.00 40 1016.0
20260503175231 55 225 5.2 8.7 0.00 0.00 0.00 39 1016.0
20260503174732 56 267 7.8 12.2 0.00 0.00 0.00 39 1016.0
20260503174231 55 307 5.2 8.7 0.00 0.00 0.00 40 1016.0
20260503173732 55 257 4.3 7.8 0.00 0.00 0.00 40 1016.0
20260503173231 55 259 5.2 7.8 0.00 0.00 0.00 39 1016.0
20260503172731 56 279 3.5 7.0 0.00 0.00 0.00 38 1016.0
20260503172231 55 282 7.8 11.3 0.00 0.00 0.00 38 1016.0
20260503171731 55 244 5.2 8.7 0.00 0.00 0.00 38 1016.0
20260503171231 55 245 5.2 7.8 0.00 0.00 0.00 37 1016.0
20260503170731 54 248 5.2 7.0 0.00 0.00 0.00 39 1016.0
20260503170231 54 256 9.6 14.8 0.00 0.00 0.00 39 1016.0
20260503150731 50 266 3.5 7.0 0.00 0.00 0.00 43 1017.0
20260503150231 49 249 7.0 10.4 0.00 0.00 0.00 44 1017.0
20260503140232 46 303 6.1 8.7 0.00 0.00 0.00 58 1017.0
20260503131231 43 284 3.5 5.2 0.00 0.00 0.00 64 1018.0
20260503130731 43 273 4.3 6.1 0.00 0.00 0.00 65 1018.0
20260503130232 42 258 5.2 7.8 0.00 0.00 0.00 66 1018.0
20260503110731 37 297 3.5 5.2 0.00 0.00 0.00 84 1017.0
20260503110231 37 221 0.0 1.7 0.00 0.00 0.00 86 1017.0
20260503100231 36 244 1.7 2.6 0.00 0.00 0.00 88 1017.0
20260503090232 36 256 0.9 1.7 0.00 0.00 0.00 89 1017.0
20260503081232 37 182 0.9 0.9 0.00 0.00 0.00 84 1017.0
20260503080731 38 196 0.9 1.7 0.00 0.00 0.00 82 1017.0
20260503080231 38 261 0.9 0.9 0.00 0.00 0.00 79 1017.0
20260503072731 38 267 3.5 5.2 0.00 0.00 0.00 76 1016.0
20260503072231 38 288 2.6 3.5 0.00 0.00 0.00 76 1016.0
20260503071731 38 262 3.5 4.3 0.00 0.00 0.00 77 1016.0
20260503071231 38 281 2.6 3.5 0.00 0.00 0.00 79 1016.0
20260503070302 38 307 2.6 3.5 0.00 0.00 0.00 79 1016.0
20260503060231 37 0 0.0 0.0 0.00 0.00 0.00 87 1017.0
20260503054732 37 25 0.0 0.0 0.00 0.00 0.00 88 1017.0
20260503054232 37 37 0.9 1.7 0.00 0.00 0.00 88 1017.0
20260503053732 37 324 1.7 1.7 0.00 0.00 0.00 87 1017.0
20260503053231 37 264 0.0 0.0 0.00 0.00 0.00 87 1017.0